Regional Weather Roundup
Issued by NWS Charleston, SC

Current Version | Previous Version | Graphics & Text | Print | Product List | Glossary On
Versions: 1 2 3 4 5 6 7 8 9 10 11 12 13 14 15 16 17 18 19 20 21 22 23 24 25 26 27 28 29 30 31 32 33 34 35 36 37 38 39 40 41 42 43 44 45 46 47 48 49 50
000
ASUS42 KCHS 240128
RWRCHS

REGIONAL WEATHER ROUNDUP
NATIONAL WEATHER SERVICE CHARLESTON SC
900 PM EDT MON MAY 23 2016

NOTE: "FAIR" INDICATES FEW OR NO CLOUDS BELOW 12,000 FEET WITH NO
SIGNIFICANT WEATHER AND/OR OBSTRUCTIONS TO VISIBILITY.

NOT ALL STATIONS ARE QUALITY CONTROLLED. USE DATA WITH CAUTION...
ESPECIALLY DEWPOINT OBSERVATIONS.

SCZ027-030-031-034>040-042>050-240200-
...SOUTHEAST SOUTH CAROLINA...

CITY           SKY/WX    TMP DP  RH WIND       PRES   REMARKS
N CHARLESTON   PTCLDY    70  53  54 N6        30.00R
WATERFRONT PRK   N/A     73  57  57 N7        29.97R
MOUNT PLEASANT FAIR      66  55  68 CALM      30.01R
JOHNS ISLAND   FAIR      70  55  60 CALM      30.01R
PINOPOLIS        N/A     73  55  53 NE8       29.91S
MONCKS CORNER  FAIR      63  50  63 CALM      30.01R
SUMMERVILLE    FAIR      64  59  82 CALM      30.02R
BEAUFORT MCAS  CLEAR     71  55  56 NE3       30.00R
BEAUFORT ARPT  FAIR      72  59  64 E3        30.00R
HILTON HEAD IS CLEAR     66  61  82 CALM      30.00R
WALTERBORO     CLEAR     70  54  56 CALM      30.02R
ALLENDALE      FAIR      70  54  56 CALM      30.00R

...SOUTHERN MIDLANDS AND PEE DEE...

CITY           SKY/WX    TMP DP  RH WIND       PRES   REMARKS
GEORGETOWN     FAIR      61  54  77 CALM      30.02R
KINGSTREE      FAIR      61  54  77 CALM      30.02R
ORANGEBURG     CLEAR     68  53  58 NE5       30.01R
BARNWELL       FAIR      72  55  56 CALM      30.01R
AIKEN          FAIR      64  52  63 NE5       30.04R HAZE
MANNING        FAIR      61  54  77 CALM      30.02R
COLUMBIA       PTCLDY    72  51  47 NE5       30.00R
SUMTER         CLEAR     67  53  59 NW3       30.00R
FLORENCE       PTCLDY    65  52  62 N5        30.02R
MYRTLE BEACH   PTCLDY    66  50  55 NW7       30.02R
N MYRTLE BEACH PTCLDY    62  56  80 N5        30.00R

$$

GAZ063-065-086>088-099>101-113>116-118-119-134>141-150-240200-
...SOUTHEAST GEORGIA...

CITY           SKY/WX    TMP DP  RH WIND       PRES   REMARKS
SAVANNAH ARPT  PTCLDY    72  56  57 CALM      29.99R
HUNTER AAF     CLEAR     71  60  67 VRB2      29.97R
FORT STEWART   CLEAR     72  57  60 CALM      29.97R
STATESBORO     CLEAR     67  60  80 CALM      30.00R
SYLVANIA       CLEAR     73  56  56 E6        30.01R
CLAXTON        FAIR      67  63  86 CALM      30.00R

...CSRA...CENTRAL AND FAR SOUTHEAST GEORGIA...

CITY           SKY/WX    TMP DP  RH WIND       PRES   REMARKS
THOMSON        CLEAR     69  57  64 E5        30.04R
AUGUSTA-BUSH   CLEAR     67  57  70 CALM      29.98R
AUGUSTA-DANIEL CLEAR     75  50  41 E6        30.00R
SWAINSBORO     FAIR      72  54  53 CALM      30.00R
VIDALIA        CLEAR     72  55  56 CALM      29.99R
EASTMAN        MOCLDY    67  59  74 CALM      30.02R
HAZLEHURST     FAIR      70  55  60 CALM      29.98R
ALMA           CLEAR     67  59  75 CALM      29.98R
WAYCROSS       CLEAR     69  60  73 CALM      29.98R
JESUP          FAIR      66  55  68 CALM      29.99R
BAXLEY         FAIR      70  55  60 CALM      29.99R
BRUNSWICK      PTCLDY    72  63  73 CALM      30.00R
SAINT SIMONS   CLEAR     75  56  51 E7        29.98R

$$

SCZ027-028-034-036>038-045-046-048>050-GAZ119-141-240200-
...LAKE AND SUPPLEMENTAL COASTAL OBSERVATIONS...

STATION/POSITION TIME  TEMP    WIND        PRES    WAVE   SWELL
                       AIR SEA DIR/SP/G            HT/PER HT/PER/DIR
                 (UTC) (F)     (DEG/KT/KT) (MB)    (FT/S) (FT/S/D)
WINYAH BAY       0000   70      10/  2     1014.0S
LAKE MURRAY      0000   72      CALM  /  2 1015.6R
ACE BASIN NERRS  0000   72        CALM     1015.0R
FORT PULASKI     0100   72 76                N/A
SAPELO ISLAND    0100   71     120/  3     1015.0R

$$

ANZ835-935-AMZ111-154-330-350-352-354-370-450-454-472-240200-
...C-MAN AND BUOY OBSERVATIONS...

STATION/POSITION TIME  TEMP    WIND        PRES    WAVE   SWELL
                       AIR SEA DIR/SP/G            HT/PER HT/PER/DIR
                 (UTC) (F)     (DEG/KT/KT) (MB)    (FT/S) (FT/S/D)
BUOY 41004       0050   72 75  360/  8/ 10 1015.1    2/10   2/10
BUOY 41008       NOT AVBL
FOLLY BEACH CMAN 0100   72      10/ 10/ 12 1016.0R
CAPERS NEARSHORE 0108   73 74   20/ 10/ 14 1015.6R
FRIPP NEARSHORE  0108   74 76  170/  4/  6 1015.1R


STATION/POSITION TIME  TEMP    WIND        PRES    WAVE   SWELL
                       AIR SEA DIR/SP/G            HT/PER HT/PER/DIR
                 (UTC) (F)     (DEG/KT/KT) (MB)    (FT/S) (FT/S/D)
5E ST. MARYS GA  0021      78                N/A     2/ 9
FRYING PAN BUOY  0100   69 77  330/ 14/ 17 1015.0R
BUOY 41025       0050   62 65  350/ 12/ 16 1013.3R   4/ 9   3/110/ 9
CAPE LOOKOUT NC  0100   63     340/  7/  9 1014.4R
BUOY 41002       0050   74 77  280/ 10/ 16 1014.6    4/ 9   3/ 80/ 9
BUOY 41010       0020   77 79   20/  8/ 10 1015.0R
ST AUGUSTINE FL  0100   77 80  110/ 10/ 11 1016.0R


$$




USA.gov is the U.S. government's official web portal to all federal, state and local government web resources and services.